Location: Dortmund
(51.5019°N, 7.6520°E)
Time: 23:30:10
(UTC+01:00)

ISS - Pass Details

Date: 12 November 2017
Orbit: 402 x 407 km, 51.6° (Epoch: 24 November)

Event Time Altitude Azimuth Distance (km) Brightness Sun altitude
Exits shadow 04:19:50 11° 87° (E) 1,416 -0.2 -31.4°
Drops below altitude 10° 04:19:56 10° 87° (E) 1,457 -0.2 -31.4°
Sets 04:22:01 0° 88° (E) 2,317 1.1 -31.0°
